G8YN6G Weather Reports


Display with metric or nautical units.
time (UTC)temp
F
wind
direction
speed
MPH
gust
MPH
rain 1hr
in
rain 24hr
in
rain mn
in
humidity
%
barometer
mb
20260507005824 44 276 1.0 4.0 0.00 0.64 0.48 91 1012.9
20260507004827 43 225 0.0 0.0 0.00 0.66 0.48 89 1012.6
20260507003924 44 192 1.0 2.0 0.00 0.66 0.48 90 1012.3
20260507002925 44 202 0.0 2.0 0.00 0.66 0.48 90 1012.2
20260507002823 43 202 0.0 0.0 0.00 0.66 0.48 89 1012.2
20260507001826 44 278 0.0 0.0 0.00 0.67 0.48 89 1012.3
20260507000826 44 232 0.0 2.0 0.00 0.67 0.48 89 1012.3
20260506235825 44 221 0.0 2.0 0.00 0.68 0.48 88 1012.2
20260506234923 43 247 1.0 2.0 0.00 0.70 0.48 87 1012.2
20260506233925 43 247 0.0 2.0 0.00 0.71 0.48 86 1011.9
20260506231924 44 171 0.0 2.0 0.00 0.75 0.48 85 1011.9
20260506225924 44 292 0.0 1.0 0.00 0.75 0.48 82 1011.5
20260506225023 45 292 0.0 0.0 0.00 0.75 0.48 83 1011.5
20260506223025 45 209 0.0 0.0 0.00 0.75 0.48 82 1011.9
20260506222025 44 292 0.0 0.0 0.00 0.75 0.48 81 1011.9
20260506221024 45 276 1.0 3.0 0.00 0.75 0.48 83 1011.5
20260506220023 45 337 1.0 2.0 0.00 0.75 0.48 83 1011.5
20260506214024 46 304 1.0 3.0 0.00 0.75 0.48 83 1011.5
20260506213024 45 296 0.0 2.0 0.00 0.75 0.48 82 1011.5
20260506212024 46 311 1.0 4.0 0.00 0.75 0.48 84 1011.5
20260506211024 45 329 0.0 2.0 0.00 0.75 0.48 83 1011.5
20260506205023 46 302 3.0 5.0 0.00 0.75 0.48 86 1011.5
20260506204025 46 314 0.0 3.0 0.00 0.75 0.48 87 1011.6
20260506203026 45 299 1.0 2.0 0.00 0.75 0.48 86 1011.5
20260506201025 45 335 1.0 4.0 0.00 0.75 0.48 87 1011.2
20260506200025 46 309 0.0 2.0 0.00 0.75 0.48 89 1011.2
20260506195024 45 339 1.0 4.0 0.00 0.75 0.48 89 1011.2
20260506192123 46 312 0.0 5.0 0.00 0.75 0.48 92 1011.2
20260506191124 45 305 1.0 4.0 0.00 0.75 0.48 92 1011.2
20260506190124 44 302 2.0 4.0 0.00 0.75 0.48 93 1010.9
20260506184224 45 289 0.0 2.0 0.00 0.75 0.48 93 1011.2
20260506183223 45 277 1.0 4.0 0.00 0.75 0.48 93 1011.2
20260506181225 45 297 5.0 9.0 0.00 0.75 0.48 93 1010.9
20260506180226 47 296 2.0 6.0 0.00 0.75 0.48 94 1010.5
20260506175324 45 306 0.0 2.0 0.00 0.75 0.48 93 1010.5
20260506174424 46 355 2.0 5.0 0.00 0.75 0.48 95 1010.4
20260506173425 45 294 1.0 3.0 0.00 0.75 0.48 95 1010.5
20260506172424 46 336 2.0 7.0 0.00 0.75 0.48 96 1010.5
20260506170623 46 333 2.0 4.0 0.00 0.75 0.48 96 1010.5
20260506165625 47 12 1.0 3.0 0.00 0.75 0.48 97 1010.2
20260506164724 46 345 3.0 8.0 0.00 0.75 0.48 97 1010.2
20260506163723 45 329 0.0 3.0 0.00 0.75 0.48 96 1009.8
20260506161724 46 336 4.0 12.0 0.00 0.75 0.48 97 1010.2
20260506160725 46 14 1.0 7.0 0.00 0.75 0.48 97 1010.4
20260506155823 45 340 3.0 7.0 0.00 0.75 0.48 97 1010.2
20260506153923 44 353 3.0 6.0 0.00 0.75 0.48 96 1010.5
20260506152926 45 27 2.0 7.0 0.00 0.75 0.48 96 1010.5
20260506152823 44 2 4.0 7.0 0.00 0.75 0.48 95 1010.5
20260506151826 45 352 4.0 5.0 0.00 0.75 0.48 96 1010.2
20260506145925 45 270 0.0 1.0 0.01 0.75 0.48 95 1010.2
20260506144924 46 354 4.0 8.0 0.01 0.75 0.48 96 1010.0
20260506143923 46 292 1.0 4.0 0.01 0.75 0.48 96 1009.6
20260506142924 44 342 2.0 4.0 0.01 0.75 0.48 95 1009.8
20260506141924 44 12 4.0 8.0 0.02 0.75 0.48 95 1009.8
20260506140923 45 307 2.0 6.0 0.02 0.75 0.48 96 1009.8
20260506135924 44 5 3.0 4.0 0.01 0.74 0.47 95 1009.8
20260506134923 44 337 1.0 2.0 0.01 0.74 0.47 95 1010.2
20260506132924 44 335 1.0 4.0 0.01 0.74 0.47 95 1010.1
20260506132023 44 1 1.0 3.0 0.00 0.73 0.46 96 1010.2
20260506131025 43 346 2.0 3.0 0.01 0.73 0.46 95 1010.2
20260506130024 43 67 1.0 2.0 0.01 0.73 0.46 95 1010.2
20260506125123 43 346 2.0 4.0 0.01 0.73 0.46 95 1009.8
20260506124125 44 341 1.0 4.0 0.02 0.73 0.46 96 1010.2
20260506122224 44 344 3.0 6.0 0.02 0.73 0.46 95 1010.2
20260506120323 44 315 0.0 0.0 0.03 0.72 0.45 95 1009.8
20260506115324 45 46 0.0 3.0 0.05 0.72 0.45 96 1009.8
20260506114325 45 76 0.0 2.0 0.07 0.72 0.44 96 1010.2
20260506113423 44 8 3.0 6.0 0.08 0.71 0.44 95 1009.8
20260506112423 45 338 1.0 3.0 0.11 0.71 0.44 96 1009.8
20260506111425 45 22 0.0 4.0 0.11 0.70 0.43 96 1010.2
20260506105523 44 315 0.0 2.0 0.09 0.67 0.40 95 1010.5
20260506104523 44 349 3.0 5.0 0.08 0.65 0.38 95 1010.5
20260506103524 44 85 2.0 3.0 0.06 0.63 0.36 95 1010.5
20260506102525 45 335 1.0 3.0 0.05 0.61 0.33 96 1010.5
20260506101623 45 40 0.0 2.0 0.04 0.59 0.32 96 1010.2
20260506100625 44 22 0.0 2.0 0.03 0.57 0.31 95 1009.8
20260506095625 45 354 0.0 2.0 0.05 0.57 0.31 96 1009.8
20260506094626 45 11 1.0 3.0 0.04 0.57 0.30 96 1009.8
20260506093723 45 16 1.0 4.0 0.05 0.57 0.30 95 1009.8
20260506092724 45 360 0.0 2.0 0.05 0.56 0.28 95 1010.2
20260506091724 44 90 0.0 0.0 0.05 0.55 0.28 94 1010.5
20260506090725 44 90 0.0 0.0 0.06 0.55 0.28 94 1010.5
20260506085823 44 69 0.0 2.0 0.04 0.53 0.26 94 1010.5
20260506084824 44 26 0.0 0.0 0.06 0.53 0.26 94 1010.5
20260506083824 45 67 0.0 0.0 0.06 0.52 0.25 95 1010.5
20260506082826 44 67 0.0 0.0 0.06 0.51 0.24 94 1010.5
20260506080924 45 341 0.0 0.0 0.08 0.49 0.22 95 1010.5
20260506073024 45 59 0.0 2.0 0.09 0.45 0.18 95 1010.9
20260506072124 45 45 0.0 0.0 0.08 0.43 0.16 95 1011.0
20260506071125 46 47 1.0 4.0 0.08 0.42 0.15 95 1010.7
20260506062124 45 67 0.0 0.0 0.04 0.35 0.08 94 1010.9
20260506061224 46 69 1.0 3.0 0.03 0.34 0.07 95 1011.5
20260506060224 45 337 0.0 0.0 0.03 0.34 0.07 94 1010.5
20260506051324 47 27 2.0 4.0 0.04 0.31 0.04 95 1011.5
20260506050423 46 20 1.0 4.0 0.04 0.31 0.04 94 1011.5
20260506044423 46 67 0.0 0.0 0.03 0.28 0.02 95 1012.2
20260506043423 47 109 0.0 2.0 0.03 0.28 0.01 95 1012.2
20260506042424 47 344 2.0 4.0 0.02 0.28 0.01 95 1011.7
20260506040424 47 11 2.0 4.0 0.04 0.27 0.00 94 1011.5
20260506035509 47 308 1.0 2.0 0.05 0.27 0.27 94 1011.5
20260506034512 47 333 1.0 3.0 0.04 0.26 0.26 93 1011.9
20260506033608 47 324 0.0 1.0 0.05 0.26 0.26 94 1011.9
20260506032611 46 323 1.0 2.0 0.05 0.26 0.26 93 1011.5
20260506031710 47 152 0.0 0.0 0.05 0.25 0.25 94 1011.7
20260506025710 46 225 0.0 0.0 0.04 0.22 0.22 92 1011.9
20260506024808 47 225 0.0 0.0 0.05 0.22 0.22 93 1011.9
20260506023809 48 225 1.0 2.0 0.04 0.21 0.21 93 1012.2
20260506022810 46 225 2.0 3.0 0.06 0.21 0.21 92 1012.2
20260506021810 48 286 0.0 2.0 0.06 0.20 0.20 93 1011.9
20260506020810 48 308 1.0 3.0 0.08 0.20 0.20 93 1011.9
20260506015909 48 339 0.0 0.0 0.08 0.19 0.18 93 1011.9
20260506014910 48 22 0.0 0.0 0.08 0.17 0.17 92 1011.5
20260506013909 47 337 0.0 0.0 0.08 0.17 0.17 91 1011.5
20260506012912 46 22 0.0 0.0 0.06 0.15 0.15 91 1011.5
20260506012010 47 67 0.0 0.0 0.06 0.14 0.14 92 1011.5
20260506011010 46 67 0.0 0.0 0.05 0.13 0.13 91 1011.2